Wind_Speed
35 39 43 45 46 47 47 46 47 48 41 42 41 33 40 47 70 52 52 44 35 22 25 29 28 19 28 32 35 34 35 35 34 32 30 31 29 30 30 30 28 30 30
36 36 38 39 40 40 41 42 42 44 42 43 40 39 38 37 34 38 43 40 36 29 40 38 26 26 31 31 35 34 37 35 34 33 31 31 30 31 30 29 29 28 29
38 36 36 38 40 41 41 42 42 40 39 39 39 39 39 39 37 32 33 43 39 35 34 37 30 30 33 34 35 35 38 36 33 32 31 31 31 30 30 29 28 26 28
39 38 38 41 44 46 47 46 45 44 43 42 41 38 39 39 37 35 32 32 39 37 35 32 32 33 33 35 36 36 37 36 34 31 31 32 30 30 28 28 28 28 29
44 45 42 43 45 46 47 49 49 48 47 47 46 44 41 39 37 36 34 29 32 31 31 35 35 36 36 37 36 36 36 34 34 33 33 31 28 31 29 28 27 27 28
39 43 47 49 48 47 48 50 49 50 51 49 49 47 44 42 40 38 34 32 32 32 34 33 36 37 37 37 36 34 33 32 32 33 34 30 28 29 29 28 28 29 28
57 50 48 50 54 55 56 56 55 54 54 53 52 52 50 47 44 41 38 35 34 34 35 36 37 37 38 35 33 32 31 30 31 32 31 29 27 30 30 29 28 26 23
61 61 60 57 56 55 55 56 57 60 59 58 57 56 58 52 49 45 41 37 35 37 38 39 39 38 35 27 32 28 28 29 31 31 29 28 30 29 29 26 26 22 24
60 62 63 64 61 59 60 58 58 62 63 59 59 59 61 58 53 49 43 39 38 39 41 41 39 40 33 32 26 25 28 29 29 28 29 29 28 24 23 23 22 21 21
71 71 70 72 77 77 75 66 63 58 58 59 58 58 61 64 59 53 47 44 41 40 41 42 45 39 32 28 23 25 28 27 28 28 29 27 22 20 20 20 18 16 16
64 61 61 62 64 62 59 58 58 58 57 51 50 52 57 61 64 58 52 48 43 41 41 42 42 34 32 21 22 24 24 27 27 27 24 22 19 17 17 15 12 11 11
55 53 56 55 55 55 56 54 55 55 52 50 51 56 62 57 63 61 56 50 46 41 40 38 37 33 25 19 19 21 23 24 24 21 18 17 16 18 18 14 11 10 10
52 47 47 46 49 48 49 49 46 47 49 47 49 49 53 63 60 61 57 50 47 41 41 40 36 30 18 17 19 20 20 20 19 16 15 9 10 9 13 10 9 11 10
41 43 44 44 45 42 42 43 42 42 39 43 43 47 57 58 56 59 56 52 46 43 41 40 38 21 19 19 18 17 15 13 9 5 5 6 6 1 8 9 10 10 10
37 39 40 38 40 42 44 39 33 27 26 30 37 45 52 52 50 58 59 53 46 41 37 36 25 22 20 16 15 13 13 8 4 2 2 6 5 3 6 8 8 8 8
36 37 34 28 31 37 36 33 27 25 26 35 42 44 46 47 51 60 58 51 45 40 38 22 20 18 14 14 14 13 11 8 5 2 3 5 6 6 7 8 8 8 8
29 38 34 27 24 25 32 36 35 33 35 37 33 34 38 45 56 59 55 48 42 39 34 25 18 14 14 16 13 11 9 8 7 7 7 7 6 4 4 6 7 8 8
16 13 14 20 27 29 37 38 39 38 34 32 31 35 42 49 53 56 51 48 46 35 29 22 17 16 16 14 13 10 8 8 9 8 8 7 6 6 5 5 5 5 5
19 18 21 23 27 32 36 36 39 38 40 37 42 50 50 55 53 49 45 39 34 29 24 19 18 17 16 13 13 10 9 8 8 8 7 6 6 6 5 4 5 4 5
30 30 28 29 33 36 34 34 36 41 48 48 50 50 51 52 48 47 37 31 27 24 20 19 17 16 13 14 14 12 10 10 9 9 8 8 6 4 4 4 4 4 5
46 43 40 39 43 48 51 52 52 52 48 48 54 42 36 36 36 35 31 29 24 22 19 17 16 13 14 16 15 13 12 11 10 9 8 7 6 7 7 6 6 7 8
41 43 45 51 45 49 50 36 38 38 43 47 43 40 37 33 31 29 26 25 23 19 18 16 13 14 16 16 16 15 13 12 10 9 8 7 6 6 6 6 7 6 5
34 38 40 34 28 30 33 38 41 42 40 37 35 33 30 30 26 26 25 22 21 20 18 16 14 16 18 17 15 13 13 12 10 9 8 7 7 7 7 7 4 4 4
32 34 34 33 32 33 34 32 36 34 35 35 30 29 27 27 25 24 23 23 22 21 18 16 18 18 16 16 16 16 14 13 12 10 8 8 7 6 5 4 3 3 3
25 26 28 26 27 24 28 28 27 30 32 27 26 24 24 25 25 25 24 23 21 19 19 19 18 18 18 18 18 16 15 12 8 8 9 8 7 6 6 5 4 4 6
21 25 26 25 28 24 26 26 26 26 26 23 23 23 23 24 24 22 21 19 18 18 18 19 20 19 18 17 17 16 14 11 11 10 9 8 7 7 7 7 6 9 12
Wind_Direction
238 236 240 245 247 249 251 251 249 253 250 252 252 245 252 261 255 267 265 258 257 273 239 259 254 232 253 263 269 273 279 289 290 296 303 301 304 307 303 304 306 308 309
241 246 242 242 242 244 246 249 250 251 252 248 250 249 246 239 247 250 253 247 243 239 265 258 254 242 260 270 274 279 278 284 289 293 298 300 304 301 302 303 304 307 312
245 245 247 247 247 247 246 247 250 251 251 251 251 249 247 246 243 243 243 244 240 238 244 245 243 256 262 270 274 276 279 282 287 290 295 296 295 295 298 298 304 308 308
254 247 246 246 246 247 249 249 248 251 251 251 252 250 252 251 249 246 245 242 235 238 243 240 246 251 259 266 270 272 276 282 285 289 293 291 292 296 293 298 307 310 304
248 253 251 250 251 250 248 248 249 249 250 252 250 248 249 250 252 249 246 237 226 226 220 226 235 245 254 260 267 271 275 280 285 291 290 286 290 289 292 300 300 300 296
244 246 249 248 247 250 253 252 249 247 247 246 249 249 245 247 248 247 245 240 233 226 224 227 236 246 253 260 264 269 275 281 284 288 282 283 285 288 295 294 294 293 292
254 257 253 254 248 246 249 252 256 256 252 248 245 247 246 243 243 243 241 236 236 233 235 238 242 248 253 257 263 266 275 280 281 277 281 284 290 291 293 293 291 287 284
258 258 262 260 254 254 255 257 255 253 253 251 248 245 245 241 239 238 237 234 230 232 237 240 245 248 252 252 259 267 274 275 275 279 282 287 289 294 295 292 283 274 270
263 261 263 261 253 255 260 263 259 254 252 249 251 247 241 240 237 234 234 233 227 229 235 239 243 247 247 250 255 265 272 273 277 283 285 289 295 292 289 285 275 259 262
263 261 257 255 260 259 260 259 256 258 255 250 248 243 239 233 235 232 227 229 227 228 233 238 241 239 225 241 253 264 267 276 279 282 289 290 289 285 292 279 270 264 218
255 254 254 253 253 255 254 254 259 255 253 247 245 241 237 229 226 227 224 223 224 227 232 237 247 234 235 232 247 259 270 273 281 286 287 288 281 284 292 274 250 241 230
254 253 254 251 249 248 251 250 247 245 244 251 247 243 236 229 219 220 218 219 220 226 233 238 244 250 232 236 249 260 267 279 283 284 283 291 289 283 271 254 251 238 242
246 244 245 245 244 244 244 245 243 248 248 250 243 233 219 226 214 214 210 213 217 223 230 234 235 228 232 242 252 259 273 279 281 276 277 285 309 301 224 236 229 230 245
235 237 240 242 243 243 241 241 249 250 243 241 227 213 204 208 209 206 201 208 212 220 229 231 230 210 227 240 248 262 271 269 288 281 268 274 299 267 200 205 222 242 256
228 232 236 239 236 239 241 246 233 226 223 202 193 197 197 201 203 196 197 203 208 219 229 230 192 200 218 234 249 257 251 247 270 322 262 252 258 258 214 219 231 245 248
232 242 251 250 239 231 229 212 195 188 192 180 185 191 193 196 194 189 193 197 205 213 217 204 200 202 219 236 244 234 233 234 240 267 258 254 224 240 229 236 236 238 246
243 249 249 231 208 214 202 184 178 176 181 184 180 185 190 190 183 186 189 193 205 208 207 198 197 208 222 232 232 219 215 224 241 261 260 243 236 224 224 223 225 234 252
177 184 190 196 199 190 181 173 173 171 176 178 183 181 177 175 177 183 188 188 200 197 188 193 199 211 220 228 216 213 213 222 231 235 236 238 239 239 245 245 242 254 273
121 129 140 144 149 156 169 168 167 171 175 176 168 163 165 172 178 182 188 167 173 181 186 195 200 208 219 216 204 203 211 220 222 222 224 225 224 227 236 241 251 263 261
105 111 116 125 136 140 151 159 162 166 155 149 156 161 166 172 186 182 171 169 177 181 185 185 196 208 212 208 202 200 208 213 209 208 209 211 209 213 227 230 236 250 268
102 105 110 118 125 129 131 136 140 140 144 152 156 163 146 160 153 161 170 173 174 176 175 185 198 202 202 198 198 198 199 201 203 204 210 213 216 223 230 238 253 262 269
105 109 116 121 121 128 131 141 145 141 149 159 150 147 148 155 162 166 168 168 168 168 176 187 193 198 198 191 192 193 198 203 207 208 208 206 206 219 228 233 243 257 273
121 97 121 121 123 126 133 121 126 133 136 139 140 143 150 157 158 158 157 160 163 172 180 189 191 189 193 191 191 192 196 195 191 185 192 208 216 209 201 207 215 231 262
104 113 115 116 115 124 126 131 132 135 137 138 148 153 152 155 156 158 161 166 172 179 184 182 179 182 180 181 183 187 186 184 195 202 200 179 181 195 213 220 218 225 260
113 116 115 119 121 133 137 138 143 147 150 150 154 152 155 158 162 166 168 174 179 179 182 181 177 176 178 182 183 182 183 192 202 193 190 197 206 212 216 211 231 265 296
130 134 135 139 140 153 146 149 152 155 156 157 157 162 167 166 165 169 173 178 179 183 177 171 176 180 179 184 184 185 191 195 196 199 205 216 219 218 227 241 264 288 299
Height
5679 5682 5685 5689 5693 5696 5699 5702 5707 5710 5712 5717 5721 5720 5726 5727 5734 5737 5743 5747 5754 5757 5762 5765 5755 5764 5769 5769 5767 5767 5766 5763 5761 5759 5759 5755 5752 5749 5747 5745 5741 5738 5733
5667 5671 5675 5679 5680 5684 5687 5690 5693 5697 5700 5704 5707 5710 5715 5718 5721 5726 5731 5738 5744 5748 5754 5757 5758 5759 5758 5760 5759 5760 5757 5755 5754 5753 5751 5747 5745 5743 5740 5738 5735 5730 5726
5655 5659 5663 5665 5668 5671 5675 5679 5683 5686 5690 5693 5697 5700 5703 5707 5711 5716 5720 5726 5731 5739 5744 5749 5747 5744 5749 5751 5751 5752 5749 5747 5747 5747 5743 5741 5740 5736 5734 5731 5728 5723 5720
5640 5645 5649 5653 5656 5659 5662 5666 5670 5674 5679 5683 5687 5690 5693 5696 5700 5705 5710 5715 5720 5726 5730 5732 5733 5735 5739 5741 5742 5744 5742 5740 5741 5739 5737 5735 5733 5729 5729 5725 5721 5717 5716
5627 5630 5634 5638 5642 5646 5650 5654 5658 5663 5667 5671 5675 5680 5683 5687 5691 5695 5701 5705 5710 5715 5717 5722 5724 5728 5731 5733 5733 5736 5735 5733 5732 5731 5730 5729 5725 5722 5722 5718 5714 5712 5711
5613 5617 5620 5624 5628 5631 5635 5639 5644 5649 5653 5658 5663 5667 5672 5677 5684 5688 5691 5696 5700 5704 5707 5711 5716 5719 5723 5724 5726 5728 5728 5726 5726 5723 5724 5721 5717 5715 5713 5710 5707 5706 5705
5597 5601 5605 5609 5614 5618 5621 5625 5629 5632 5637 5643 5648 5653 5660 5668 5673 5679 5684 5686 5691 5695 5700 5704 5706 5711 5714 5716 5716 5718 5718 5719 5718 5718 5715 5713 5710 5707 5705 5702 5700 5700 5699
5581 5586 5589 5591 5594 5598 5603 5609 5613 5616 5620 5626 5634 5640 5646 5655 5661 5669 5675 5679 5684 5687 5691 5697 5698 5702 5704 5705 5706 5709 5711 5712 5711 5710 5708 5705 5702 5698 5696 5695 5693 5693 5693
5563 5566 5569 5571 5574 5578 5583 5589 5593 5596 5602 5609 5616 5624 5633 5641 5649 5657 5664 5671 5674 5679 5683 5689 5691 5692 5694 5697 5701 5702 5704 5703 5703 5701 5700 5696 5692 5691 5689 5688 5686 5685 5686
5542 5545 5547 5550 5553 5557 5564 5570 5573 5577 5582 5589 5597 5605 5615 5627 5635 5645 5653 5661 5667 5671 5675 5680 5680 5682 5684 5688 5692 5696 5697 5696 5697 5694 5691 5688 5685 5684 5683 5682 5681 5680 5678
5518 5522 5525 5528 5531 5536 5541 5546 5552 5556 5561 5569 5578 5587 5595 5608 5619 5631 5642 5650 5659 5662 5665 5670 5672 5675 5681 5682 5687 5690 5689 5691 5688 5686 5684 5681 5679 5678 5678 5678 5678 5679 5679
5494 5499 5504 5509 5513 5516 5521 5527 5531 5536 5542 5549 5558 5567 5578 5591 5603 5616 5629 5640 5648 5655 5660 5664 5668 5672 5675 5678 5681 5683 5685 5684 5681 5679 5678 5675 5673 5673 5674 5676 5677 5678 5678
5475 5481 5486 5490 5495 5500 5505 5510 5514 5518 5522 5529 5536 5546 5559 5576 5588 5602 5618 5630 5640 5647 5653 5656 5660 5663 5666 5671 5676 5678 5678 5677 5676 5674 5671 5670 5670 5668 5671 5674 5675 5677 5677
5460 5466 5470 5475 5480 5485 5490 5495 5499 5503 5507 5510 5518 5530 5545 5561 5577 5591 5609 5622 5633 5640 5644 5648 5654 5656 5664 5669 5671 5672 5671 5673 5670 5668 5666 5667 5669 5669 5670 5673 5675 5676 5676
5446 5452 5455 5461 5467 5472 5476 5483 5487 5492 5496 5500 5510 5523 5538 5554 5571 5584 5600 5616 5627 5635 5640 5644 5647 5654 5661 5664 5665 5666 5668 5668 5666 5665 5665 5667 5669 5670 5671 5672 5673 5674 5675
5436 5441 5445 5449 5454 5458 5465 5474 5482 5488 5494 5502 5512 5524 5537 5551 5564 5580 5597 5610 5620 5628 5637 5641 5646 5651 5655 5658 5660 5662 5663 5663 5663 5663 5666 5667 5668 5669 5670 5671 5672 5672 5673
5427 5432 5437 5440 5443 5449 5459 5469 5479 5488 5497 5506 5516 5526 5538 5549 5563 5580 5593 5605 5616 5624 5631 5638 5642 5646 5650 5655 5656 5657 5659 5659 5660 5662 5664 5666 5667 5668 5669 5669 5670 5671 5672
5423 5428 5431 5433 5438 5446 5457 5468 5478 5489 5500 5509 5517 5527 5538 5552 5566 5580 5592 5602 5611 5619 5628 5633 5638 5644 5648 5650 5651 5653 5655 5657 5659 5661 5663 5665 5666 5667 5667 5668 5669 5670 5671
5426 5429 5432 5435 5440 5448 5460 5471 5481 5491 5500 5509 5517 5529 5542 5556 5570 5582 5590 5593 5609 5618 5625 5631 5637 5641 5643 5645 5648 5650 5653 5656 5658 5660 5662 5664 5664 5665 5666 5667 5668 5668 5668
5437 5439 5443 5446 5451 5458 5469 5478 5486 5495 5504 5514 5528 5539 5552 5564 5568 5582 5591 5600 5609 5616 5623 5629 5634 5637 5639 5641 5645 5649 5652 5654 5657 5659 5661 5662 5663 5663 5664 5665 5665 5666 5666
5458 5459 5462 5465 5469 5475 5483 5491 5499 5507 5517 5529 5539 5539 5547 5566 5575 5586 5594 5602 5609 5616 5622 5627 5631 5634 5637 5641 5645 5648 5651 5653 5655 5657 5659 5660 5660 5661 5662 5662 5663 5663 5662
5483 5482 5484 5489 5495 5501 5505 5505 5512 5522 5529 5540 5547 5554 5564 5574 5582 5589 5595 5603 5610 5616 5621 5626 5628 5632 5636 5640 5643 5646 5649 5652 5653 5655 5657 5657 5658 5659 5660 5660 5660 5660 5660
5498 5500 5500 5504 5507 5512 5514 5521 5527 5534 5540 5548 5555 5564 5571 5579 5585 5591 5598 5604 5611 5616 5620 5623 5627 5631 5634 5638 5641 5645 5648 5650 5652 5654 5655 5655 5656 5657 5657 5657 5658 5658 5658
5513 5515 5517 5518 5520 5526 5530 5533 5537 5544 5550 5557 5565 5570 5575 5581 5587 5593 5599 5605 5610 5614 5618 5623 5627 5630 5633 5637 5640 5643 5646 5648 5650 5651 5652 5652 5654 5654 5655 5655 5656 5656 5656
5525 5526 5528 5532 5535 5536 5539 5543 5548 5553 5557 5561 5568 5573 5578 5583 5589 5594 5599 5605 5609 5614 5619 5623 5626 5629 5632 5635 5639 5642 5644 5646 5647 5648 5650 5651 5652 5653 5653 5653 5654 5654 5653
5532 5534 5535 5538 5542 5543 5546 5550 5554 5558 5562 5567 5572 5576 5580 5586 5591 5596 5601 5606 5610 5614 5618 5622 5625 5628 5631 5634 5637 5640 5642 5643 5645 5646 5648 5649 5650 5650 5650 5650 5650 5649 5648